Flag for U.S.A. Weather past 2 weeks in San Francisco, California, U.S.A.

Now
74 °F

Passing clouds.


Feels Like: 77 °F
Forecast: 61 / 72 °F
Wind: 13 mph from Northwest

Location: San Francisco International Airport

Current Time: Jul 26, 2014 at 1:03:10 PM

Latest Report: Jul 26, 2014 at 11:56 AM


Visibility: 10 mi

Pressure: 29.94 "Hg

Humidity: 60%

Dew point: 59 °F

Location of San FranciscoLocation

Historic Weather in San Francisco — Graph

°F

San Francisco temperature yesterday

Maximum temperature yesterday: 87 °F (at 1:56 PM)
Minimum temperature yesterday: 62 °F (at 4:56 AM)
Average temperature yesterday: 71 °F

Past Weeks' High & Low Weather Summary

 TemperatureHumidityPressure
High87 °F (Jul 25, 1:56 PM)97% (Jul 13, 6:56 AM)30.14 "Hg (Jul 13, 6:56 AM)
Low53 °F (Jul 13, 4:56 AM)38% (Jul 25, 3:56 PM)29.83 "Hg (Jul 25, 5:56 PM)
Average67 °F74%29.98 "Hg
* Reported Jul 11 11:56 AM — Jul 26 11:56 AM, San Francisco, Weather by CustomWeather, © 2014

Note: Actual official high and low records may vary slightly from our data, if they occured in-between our weather recording intervals... More about our weather records

Advertising

San Francisco weather history for previous 24 hours

 ConditionsComfort  
Time TempWeatherWind HumidityBarometerVisibility
11:56 AM
Jul 26
74 °FPassing clouds.13 mph60%29.94 "Hg10 mi
10:56 AM72 °FPassing clouds.9 mph64%29.94 "Hg10 mi
9:56 AM71 °FPassing clouds.6 mph66%29.94 "Hg10 mi
8:56 AM68 °FPassing clouds.8 mph70%29.94 "Hg10 mi
7:56 AM64 °FPassing clouds.9 mph81%29.93 "Hg10 mi
6:56 AM62 °FPassing clouds.10 mph86%29.91 "Hg10 mi
5:56 AM61 °FPassing clouds.9 mph90%29.90 "Hg10 mi
4:56 AM63 °FClear.8 mph84%29.88 "Hg10 mi
3:56 AM63 °FClear.12 mph84%29.89 "Hg10 mi
2:56 AM63 °FClear.10 mph81%29.88 "Hg10 mi
1:56 AM64 °FClear.8 mph78%29.88 "Hg10 mi
12:56 AM64 °FClear.9 mph78%29.88 "Hg10 mi
11:56 PM
Jul 25
64 °FClear.12 mph78%29.88 "Hg10 mi
10:56 PM65 °FClear.9 mph78%29.88 "Hg10 mi
9:56 PM66 °FClear.10 mph73%29.87 "Hg10 mi
8:56 PM67 °FPassing clouds.10 mph73%29.85 "Hg10 mi
7:56 PM71 °FPassing clouds.12 mph61%29.84 "Hg10 mi
6:56 PM75 °FPassing clouds.16 mph54%29.83 "Hg10 mi
5:56 PM80 °FPassing clouds.20 mph44%29.83 "Hg10 mi
4:56 PM82 °FPassing clouds.22 mph38%29.83 "Hg10 mi
3:56 PM84 °FPassing clouds.20 mph38%29.84 "Hg10 mi
2:56 PM87 °FPassing clouds.17 mph39%29.84 "Hg10 mi
1:56 PM87 °FPassing clouds.15 mph40%29.85 "Hg10 mi
Weather by CustomWeather, © 2014

See weather overviewHow to use our weather pages